カタログに戻る

STARLINK-34472

運用中通信VLEO
NORAD 64434·PAYLOAD·🇺🇸 United States

打ち上げ Jun 17, 2025 から Vandenberg Space Force Base

Loading…

次のパス (今後24時間)

TLE

最新Source: CelesTrak SupGP

元期: Sep 14, 2026, 21:07 UTC

1 64434C 25129Y   26257.88034722 -.00012499  00000+0 -43496-3 0  2578
2 64434  69.9991 315.8335 0003279 272.1305 190.7939 15.29574003    10

AllMySatでSTARLINK-34472をリアルタイム追跡

Download on the App Store